Location: Plainartige
(45.6866°N, 1.7993°E)
Time: 06:46:21
(UTC+00:00)

Oscar 19 - Pass Details

Date: 02 July 2022
Orbit: 773 x 790 km, 98.8° (Epoch: 12 August)

Event Time Altitude Azimuth Distance (km) Brightness Sun altitude
Rises 03:11:53 0° 17° (NNE) 3,262 15.1 -8.3°
Reaches altitude 10° 03:14:15 10° 22° (NNE) 2,330 14.4 -8.0°
Maximum altitude 03:19:18 58° 101° (ESE) 899 11.2 -7.3°
Drops below altitude 10° 03:24:20 10° 181° (S) 2,313 12.7 -6.7°
Sets 03:26:40 0° 185° (S) 3,237 13.4 -6.4°
